This demonstration page uses our WeatherBlox Daily Observations layout. Learn more.

Hourly Observations for August 12, 2015

Temp ( °F °C ) Dew Point ( °F °C ) Humidity (%) Winds ( mph kmh ) Pressure ( in mb ) Visibility ( mi km ) Precip ( " mm )
12:15 am 00:15 Clear 64 18 59 15 83 83 SE 5 7 30.18 1022 10 16.09344 0 0
12:35 am 00:35 Clear 64 18 59 15 83 83 SE 6 9 30.18 1022 10 16.09344 0 0
12:55 am 00:55 Clear 64 18 59 15 83 83 SSE 5 7 30.18 1022 10 16.09344 0 0
1:15 am 01:15 Clear 64 18 59 15 83 83 Calm 30.18 1022 10 16.09344 0 0
1:35 am 01:35 Clear 63 17 59 15 88 88 SSE 6 9 30.18 1022 10 16.09344 0 0
1:55 am 01:55 Clear 63 17 59 15 88 88 SE 5 7 30.18 1022 10 16.09344 0 0
2:15 am 02:15 Clear 63 17 59 15 88 88 SSE 6 9 30.18 1022 10 16.09344 0 0
2:35 am 02:35 Clear 64 18 59 15 83 83 S 6 9 30.18 1022 10 16.09344 0 0
2:55 am 02:55 Clear 64 18 59 15 83 83 S 6 9 30.18 1022 10 16.09344 0 0
3:15 am 03:15 Clear 64 18 59 15 83 83 S 6 9 30.18 1022 10 16.09344 0 0
3:35 am 03:35 Clear 63 17 59 15 88 88 S 5 7 30.18 1022 10 16.09344 0 0
3:55 am 03:55 Clear 63 17 59 15 88 88 SSE 6 9 30.18 1022 10 16.09344 0 0
4:15 am 04:15 Clear 63 17 59 15 88 88 SSE 5 7 30.18 1022 10 16.09344 0 0
4:35 am 04:35 Clear 63 17 59 15 88 88 SSE 5 7 30.18 1022 10 16.09344 0 0
4:55 am 04:55 Clear 63 17 59 15 88 88 S 3 6 30.18 1022 10 16.09344 0 0
5:15 am 05:15 Clear 63 17 59 15 88 88 S 5 7 30.18 1022 10 16.09344 0 0
5:35 am 05:35 Clear 63 17 57 14 83 83 S 3 6 30.18 1022 10 16.09344 0 0
5:55 am 05:55 Clear 61 16 57 14 88 88 S 5 7 30.18 1022 10 16.09344 0 0
6:15 am 06:15 Clear 61 16 57 14 88 88 SSE 3 6 30.18 1022 10 16.09344 0 0
6:35 am 06:35 Clear 61 16 57 14 88 88 S 3 6 30.18 1022 10 16.09344 0 0
6:55 am 06:55 Sunny 61 16 57 14 88 88 SSE 3 6 30.18 1022 10 16.09344 0 0
7:15 am 07:15 Sunny 61 16 57 14 88 88 S 5 7 30.18 1022 10 16.09344 0 0
7:35 am 07:35 Sunny 63 17 59 15 88 88 SSE 3 6 30.18 1022 10 16.09344 0 0
7:55 am 07:55 Sunny 64 18 59 15 83 83 SSE 5 7 30.21 1023 10 16.09344 0 0
8:15 am 08:15 Sunny 66 19 61 16 83 83 S 7 11 30.18 1022 10 16.09344 0 0
8:35 am 08:35 Sunny 66 19 59 15 78 78 S 7 11 30.18 1022 10 16.09344 0 0
8:55 am 08:55 Sunny 68 20 61 16 78 78 S 7 11 30.18 1022 10 16.09344 0 0
9:15 am 09:15 Sunny 70 21 61 16 73 73 S 7 11 30.18 1022 10 16.09344 0 0
9:35 am 09:35 Sunny 72 22 61 16 69 69 S 9 15 30.15 1021 10 16.09344 0 0
9:55 am 09:55 Sunny 73 23 59 15 61 61 S 13 20 30.15 1021 10 16.09344 0 0
10:15 am 10:15 Sunny 75 24 61 16 61 61 S 13 20 30.15 1021 10 16.09344 0 0
10:35 am 10:35 Sunny 75 24 59 15 57 57 S 16 26 30.15 1021 10 16.09344 0 0
10:55 am 10:55 Sunny 77 25 59 15 54 54 S 12 19 30.15 1021 10 16.09344 0 0
11:15 am 11:15 Sunny 77 25 59 15 54 54 SSE 13 20 30.15 1021 10 16.09344 0 0
11:35 am 11:35 Sunny 77 25 59 15 54 54 S 15 24 30.12 1020 10 16.09344 0 0
11:55 am 11:55 Sunny 79 26 59 15 51 51 S 16 26 30.09 1019 10 16.09344 0 0
12:15 pm 12:15 Sunny 79 26 59 15 51 51 S 15 24 30.09 1019 10 16.09344 0 0
12:35 pm 12:35 Sunny 81 27 59 15 48 48 S 16 26 30.09 1019 10 16.09344 0 0
12:55 pm 12:55 Sunny 81 27 59 15 48 48 S 15 24 30.09 1019 10 16.09344 0 0
1:15 pm 13:15 Partly Cloudy 81 27 59 15 48 48 SSE 14 22 30.09 1019 10 16.09344 0 0
1:35 pm 13:35 Sunny 82 28 57 14 42 42 S 14 22 30.06 1018 10 16.09344 0 0
1:55 pm 13:55 Sunny 82 28 59 15 45 45 S 13 20 30.06 1018 10 16.09344 0 0
2:15 pm 14:15 Sunny 82 28 57 14 42 42 S 15 24 30.06 1018 10 16.09344 0 0
2:35 pm 14:35 Sunny 82 28 59 15 45 45 S 12 19 30.06 1018 10 16.09344 0 0
2:55 pm 14:55 Sunny 82 28 57 14 42 42 S 13 20 30.03 1017 10 16.09344 0 0
3:15 pm 15:15 Sunny 84 29 57 14 40 40 S 13 20 30 1016 10 16.09344 0 0
3:35 pm 15:35 Sunny 84 29 59 15 43 43 S 12 19 30 1016 10 16.09344 0 0
3:55 pm 15:55 Sunny 84 29 57 14 40 40 S 12 19 30 1016 10 16.09344 0 0
4:15 pm 16:15 Sunny 84 29 57 14 40 40 SSE 13 20 30 1016 10 16.09344 0 0
4:35 pm 16:35 Sunny 84 29 59 15 43 43 S 12 19 30 1016 10 16.09344 0 0
4:55 pm 16:55 Sunny 84 29 59 15 43 43 S 13 20 29.97 1015 10 16.09344 0 0
5:15 pm 17:15 Sunny 84 29 59 15 43 43 S 8 13 29.97 1015 10 16.09344 0 0
5:35 pm 17:35 Sunny 84 29 59 15 43 43 S 13 20 29.97 1015 10 16.09344 0 0
5:55 pm 17:55 Sunny 84 29 59 15 43 43 S 10 17 29.97 1015 10 16.09344 0 0
6:15 pm 18:15 Sunny 84 29 59 15 43 43 S 9 15 29.97 1015 10 16.09344 0 0
6:35 pm 18:35 Sunny 84 29 59 15 43 43 S 9 15 29.97 1015 10 16.09344 0 0
6:55 pm 18:55 Sunny 84 29 61 16 45 45 SSE 8 13 29.97 1015 10 16.09344 0 0
7:15 pm 19:15 Sunny 82 28 64 18 55 55 SSE 6 9 30 1016 10 16.09344 0 0
7:35 pm 19:35 Sunny 81 27 63 17 54 54 SSE 7 11 30 1016 10 16.09344 0 0
7:55 pm 19:55 Sunny 79 26 64 18 61 61 SSE 7 11 30 1016 10 16.09344 0 0
8:15 pm 20:15 Sunny 77 25 64 18 65 65 SSE 7 11 30 1016 10 16.09344 0 0
8:35 pm 20:35 Sunny 75 24 64 18 69 69 SSE 7 11 30.03 1017 10 16.09344 0 0
8:55 pm 20:55 Clear 73 23 64 18 74 74 SE 7 11 30.03 1017 10 16.09344 0 0
9:15 pm 21:15 Clear 72 22 64 18 78 78 SSE 8 13 30.03 1017 10 16.09344 0 0
9:35 pm 21:35 Clear 72 22 64 18 78 78 SSE 6 9 30.03 1017 10 16.09344 0 0
9:55 pm 21:55 Clear 72 22 64 18 78 78 SSE 5 7 30.03 1017 10 16.09344 0 0
10:15 pm 22:15 Clear 70 21 63 17 78 78 SSE 6 9 30.03 1017 10 16.09344 0 0
10:35 pm 22:35 Clear 70 21 63 17 78 78 SSE 3 6 30.03 1017 10 16.09344 0 0
10:55 pm 22:55 Clear 68 20 63 17 83 83 SSE 5 7 30.06 1018 10 16.09344 0 0
11:15 pm 23:15 Clear 68 20 63 17 83 83 SSE 5 7 30.06 1018 10 16.09344 0 0
11:35 pm 23:35 Clear 68 20 63 17 83 83 SSE 5 7 30.06 1018 10 16.09344 0 0
11:55 pm 23:55 Clear 68 20 63 17 83 83 SSE 5 7 30.06 1018 10 16.09344 0 0

Powered by AerisWeather